Zurück zum Katalog

CZ-6A DEB

AktivSSO
NORAD 54566·DEBRIS·🇨🇳 China

Gestartet Nov 11, 2022 von Taiyuan Satellite Launch Center

Loading…

Nächste Überflüge (nächste 24 Stunden)

TLE

AktuellSource: Space-Track

Epoche: Sep 14, 2026, 10:35 UTC

1 54566U 22151LS  26257.44142824  .00000033  00000-0  44349-4 0  9992
2 54566  98.8598 250.7611 0056307 102.4778 258.2699 14.07953976196993

Verfolge CZ-6A DEB in Echtzeit mit AllMySat

Download on the App Store